Location: Briga-Marittima
(44.0617°N, 7.6167°E)
Time: 14:20:16
(UTC+00:00)

Daily predictions for brighter satellites

Satellite Brightness Start Highest point End
(mag) Time Altitude Azimuth Time Altitude Azimuth Time Altitude Azimuth
Cosmos 2251 Rocket 3.6 19:03:08 10° NNW 19:08:32 82° ENE 19:13:53 10° SSE
BREEZE-M DEB (TANK) 3.8 19:06:11 10° WSW 19:10:07 87° NNW 19:24:23 10° ENE
Cosmos 1371 Rocket 4.1 19:06:46 10° S 19:11:59 64° ESE 19:17:16 10° NNE
CSL-04 Debris 4.2 19:07:49 10° SSE 19:13:13 78° ENE 19:18:40 10° N
Milstar 3 4.1 19:08:22 10° SW 19:13:38 24° S 19:20:06 10° ESE
USA 276 2.5 19:14:25 10° N 19:14:45 11° NNE 19:15:05 10° NE
Cosmos 1536 Rocket 4.2 19:11:54 10° N 19:15:57 36° ENE 19:19:59 10° SE
Feng Yun 1-1 Rocket 4.4 19:11:41 10° SSE 19:16:56 58° ENE 19:22:14 10° N
SOZ 4.4 19:13:25 10° WNW 19:18:12 78° NNE 19:20:31 10° ESE
Cosmos 1447 Rocket 4.5 19:13:08 10° N 19:19:19 77° E 19:25:26 10° SSE
CZ-4C R/B 2.5 19:16:45 10° SSE 19:19:59 24° ESE 19:23:47 10° ENE
Okean O Rocket 3.0 19:20:33 10° ESE 19:23:52 22° ENE 19:27:12 10° NNE
Cosmos 1954 Rocket 4.0 19:19:24 10° NNW 19:24:37 88° ENE 19:29:45 10° SSE
Cosmos 1697 Rocket 3.1 19:19:16 10° NNW 19:24:44 48° ENE 19:30:08 10° SE
ERS-1 Rocket 3.1 19:20:45 10° SSE 19:25:39 59° ENE 19:30:36 10° N
ATLAS 3B R/B 3.4 19:18:55 10° NNW 19:26:31 52° NE 19:33:32 11° ESE
Cosmos 1867 3.7 19:22:46 10° SW 19:28:11 83° NW 19:33:41 10° NNE
USA 186 3.6 19:28:29 10° E 19:29:34 12° ENE 19:30:39 10° NE
Cosmos 332 Rocket 3.8 19:26:25 10° NNW 19:31:12 71° ENE 19:35:54 10° SSE
Helios 1A Rocket 2.2 19:28:04 10° NNE 19:31:12 59° ESE 19:34:19 10° S
Meteor 1-31 Rocket 2.7 19:28:24 10° S 19:31:52 74° WSW 19:35:21 10° NNW
Cosmos 1331 Rocket 4.4 19:30:39 10° S 19:35:31 41° ESE 19:40:24 10° NE
MOS 1 4.3 19:30:45 10° SSE 19:36:23 77° ENE 19:42:06 10° N
Okean-O 3.7 19:33:08 12° SE 19:36:35 29° ENE 19:40:22 10° N
Cosmos 968 Rocket 3.8 19:34:24 10° NNW 19:39:33 54° ENE 19:44:08 13° SE
Cosmos 676 Rocket 4.0 19:34:50 10° NNW 19:40:05 88° ENE 19:45:16 10° SSE
Meteor 2-1 Rocket 4.3 19:36:40 10° S 19:42:17 60° E 19:47:48 10° NNE
Cosmos 2173 Rocket 4.1 19:37:22 10° S 19:43:19 58° E 19:49:23 10° NNE
Cosmos 1455 Rocket 4.0 19:42:58 13° SE 19:46:15 29° E 19:50:02 10° NNE
Aureole 1 4.5 19:47:46 10° SSW 19:51:02 81° ESE 19:55:07 10° NNE
Okean 1 Rocket 3.0 19:47:50 10° S 19:52:10 67° E 19:56:33 10° NNE
Cosmos 1980 Rocket 3.0 19:47:28 10° NNW 19:52:46 38° NE 19:56:48 16° ESE
SL-08 R/B 3.4 19:48:19 10° NNE 19:53:08 61° ESE 19:57:50 10° S
CZ-4 R/B 2.5 19:54:47 10° SSW 19:58:09 36° W 20:01:32 10° NNW
Meteor 2-3 Rocket 3.7 19:52:52 10° N 19:58:31 83° E 20:03:58 11° SSE
CZ-4B R/B 4.2 19:58:30 15° E 19:59:36 18° ENE 20:01:55 10° NNE
Cosmos 1782 3.7 19:59:07 21° ESE 20:00:09 24° E 20:03:03 10° NE
Cosmos 1850 Rocket 4.2 19:57:47 10° NNW 20:02:51 54° ENE 20:06:16 20° SE
ASTEX 1 4.3 19:59:38 10° SSW 20:04:25 50° W 20:09:15 10° NNW
CZ-4B R/B 3.5 20:02:18 10° S 20:07:57 73° WSW 20:13:37 10° NNW
Cosmos 1833 Rocket 3.5 20:03:54 10° SW 20:09:22 54° WNW 20:14:53 10° NNE
Cosmos 1110 Rocket 4.0 20:04:20 10° SSW 20:09:36 87° ESE 20:14:56 10° NNE
Cosmos 1802 Rocket 4.0 20:03:39 10° S 20:09:47 65° E 20:15:53 10° NNE
Terra 2.3 20:07:38 10° S 20:12:14 57° W 20:16:52 10° NNW
Sich 1 Rocket 3.6 20:10:40 10° S 20:15:01 79° W 20:19:24 10° N
Gbstr 26 Del rocket 3.8 20:10:55 10° NW 20:15:55 50° NNE 20:18:53 18° E
SJ 16-02 4.1 20:20:11 10° WNW 20:21:33 11° W 20:22:56 10° WSW
YAOGAN 11 4.0 20:18:19 10° NNE 20:22:45 80° ESE 20:26:53 12° S
CZ-2C R/B 4.1 20:23:39 15° ENE 20:23:39 15° ENE 20:25:08 10° NNE
USA 229 DEB 4.4 20:20:24 10° NW 20:27:57 63° WSW 20:34:05 19° SSE
USA 229 4.3 20:20:26 10° NW 20:28:00 64° WSW 20:34:07 19° SSE
Cosmos 1743 2.0 20:25:01 10° N 20:28:02 67° E 20:28:34 52° SE
Meteor 1-27 4.1 20:24:06 12° S 20:29:22 75° E 20:34:59 10° NNE
Cosmos 44 Rocket 3.4 20:25:03 10° SSW 20:30:05 88° WNW 20:35:17 10° NE
Cosmos 1459 Rocket 4.3 20:24:38 10° SSW 20:30:51 66° W 20:37:01 10° N
ISS -3.9 20:28:21 10° SW 20:31:41 77° SSE 20:35:02 10° ENE
Ariane Rocket 3.5 20:32:21 28° ESE 20:34:30 45° ENE 20:39:19 10° N
Meteor 2-12 Rocket 4.4 20:31:22 10° N 20:37:27 69° E 20:40:49 28° SSE
ATLAS 2AS CENTAUR R/B 4.4 20:33:03 10° WSW 20:39:18 35° NW 20:45:28 10° NNE
Spot 2 Rocket 3.8 20:36:59 19° S 20:40:27 60° W 20:45:26 10° NNW
BREEZE-M DEB (TANK) 3.6 20:39:55 10° WNW 20:43:12 71° SSW 20:47:10 27° SE
Cosmos 2369 4.2 20:38:23 10° NNW 20:43:55 49° ENE 20:46:24 30° ESE
SL-4 R/B 2.5 20:40:22 10° WNW 20:44:00 40° SW 20:44:44 36° S
Cosmos 2082 Rocket 2.2 20:40:45 16° S 20:45:19 63° ESE 20:50:58 10° NNE
Cosmos 2322 Rocket 4.3 20:42:35 10° N 20:45:51 15° NE 20:49:07 10° ENE
Cosmos 909 Rocket 4.1 20:41:52 10° SSW 20:48:08 56° ESE 20:54:20 10° NE
USA 305 4.1 20:46:04 10° NW 20:49:38 29° NNE 20:51:07 22° ENE
Aureole 3 Rocket 4.5 20:46:05 25° SSE 20:50:15 66° E 20:58:58 10° NNE
Cosmos 2151 4.0 20:49:01 10° NNE 20:52:38 29° ENE 20:52:53 29° E
Cosmos 2233 Rocket 3.9 20:51:19 19° S 20:55:55 89° W 21:02:09 10° N
USA 234 4.1 20:50:50 10° ENE 20:55:31 28° ESE 20:55:31 28° ESE
Cosmos 1607 3.8 20:50:20 10° SSW 20:56:28 84° ESE 21:02:45 10° NE
Cosmos 2228 2.9 20:55:36 34° SSW 20:57:20 76° W 21:01:28 10° N
USA 186 3.3 20:58:27 22° WSW 20:58:41 22° W 21:00:54 10° NW
Cosmos 1626 Rocket 3.8 20:55:14 10° N 20:59:28 50° ENE 21:00:04 46° ESE
Okean O Rocket 2.8 20:57:28 20° SSW 20:59:51 36° W 21:03:49 10° NNW
DELTA 2 R/B (1) 3.9 20:58:00 10° SW 21:03:11 41° SSE 21:03:11 41° SSE
Tsikada Rocket 4.0 20:59:36 10° N 21:05:48 81° W 21:08:51 32° S
Cosmos 1992 Rocket 3.9 21:05:59 44° SSE 21:07:29 63° ESE 21:12:38 10° NNE
CZ-4C R/B 3.1 21:03:46 10° WSW 21:07:44 39° NW 21:12:44 10° NNE
Cosmos 1697 Rocket 4.3 21:03:47 10° NW 21:08:21 26° WSW 21:11:51 14° SSW
COSMOS 2406 3.5 21:07:30 42° SE 21:08:27 46° ESE 21:13:54 10° NE
Meteor 1-20 Rocket 4.4 21:06:57 10° N 21:12:26 58° ENE 21:13:52 44° SE
Okean-O 4.3 21:10:27 18° SW 21:12:48 28° W 21:16:35 10° NW
SL-16 R/B 3.2 21:07:54 10° N 21:13:07 36° NE 21:14:58 29° E
ATLAS 3B R/B 3.7 21:10:04 10° NW 21:17:10 42° WSW 21:20:47 26° SSW
CZ-4B R/B 3.6 21:19:07 44° SSW 21:20:24 63° WSW 21:25:09 10° NNW
Cosmos 2098 Rocket 3.8 21:25:32 44° E 21:25:35 44° E 21:30:07 10° NNE
Cosmos 2333 Rocket 3.0 21:20:42 10° NNW 21:26:03 40° ENE 21:27:39 33° E
Meteor 1-25 Rocket 4.3 21:25:49 10° N 21:31:29 63° ENE 21:32:32 53° ESE
CZ-4B R/B 4.1 21:33:11 26° W 21:33:11 26° W 21:36:03 10° NW
Cosmos 1544 Rocket 3.6 21:35:33 63° SW 21:36:02 70° W 21:40:22 10° N
Cosmos 1980 Rocket 3.3 21:31:33 10° NW 21:36:41 35° WSW 21:38:33 28° SW
NOSS 3-3 (A) 3.7 21:34:26 19° SW 21:38:12 74° NW 21:44:17 10° NE
Cosmos 1933 3.6 21:44:20 59° NNW 21:44:20 59° NNW 21:47:33 10° N
Helios 1B rocket 3.7 21:51:51 28° NNE 21:51:51 28° NNE 21:53:59 10° N
Cosmos 2084 Rocket 3.7 21:46:40 10° NW 21:50:19 61° WNW 21:50:19 61° WNW
Cosmos 1758 Rocket 4.2 21:49:18 10° NNW 21:53:29 46° W 21:53:42 45° WSW
Cosmos 1464 Rocket 3.8 21:53:23 60° SSE 21:54:30 76° E 22:00:39 10° N
Cosmos 1375 Rocket 4.4 21:52:57 53° S 21:54:33 74° ESE 22:01:06 10° NE
Gbstr 26 Del rocket 4.3 21:57:55 10° WNW 22:00:52 30° W 22:00:52 30° W
Cosmos 2360 Rocket 2.8 21:57:50 10° NNW 22:03:17 45° ENE 22:04:14 41° E
NOSS 3-3 (C) 4.2 22:02:52 22° WSW 22:06:13 58° NW 22:12:20 10° NNE
ALOS 2 4.1 22:06:32 26° ENE 22:06:32 26° ENE 22:09:54 10° N
Meteor 2-10 4.1 22:00:42 10° N 22:06:26 78° E 22:06:57 71° SE
ARIANE 5 R/B 3.8 22:07:11 32° ENE 22:07:11 32° ENE 22:10:47 10° N
ISS -1.6 22:05:49 10° WNW 22:08:14 26° NNW 22:08:14 26° NNW
Cosmos 1072 Rocket 4.5 22:08:18 54° SSW 22:09:46 77° W 22:16:06 10° N
Cosmos 1825 Rocket 4.0 22:05:36 10° N 22:09:11 58° NNE 22:09:11 58° NNE
Cosmos 1602 Rocket 4.5 22:15:04 10° NNW 22:18:42 41° WNW 22:18:42 41° WNW
Cosmos 1092 Rocket 4.2 22:14:12 10° N 22:20:12 52° ENE 22:20:51 50° E
Cosmos 2219 Rocket 3.1 22:15:31 10° NNW 22:20:48 39° ENE 22:21:48 36° E
Cosmos 540 Rocket 4.3 22:23:21 40° ENE 22:23:21 40° ENE 22:27:09 10° NNE
NOSS 3-4 (A) 4.0 22:16:45 10° NNW 22:23:28 65° NE 22:26:01 43° ESE
NOSS 3-4 (C) 4.1 22:17:21 10° NNW 22:24:06 65° NE 22:26:40 43° ESE
Cosmos 2034 Rocket 3.9 22:27:37 69° S 22:28:30 89° W 22:34:55 10° N
Cosmos 2082 Rocket 4.3 22:25:18 10° WSW 22:29:50 24° NW 22:34:23 10° N
Cosmos 1428 Rocket 4.4 22:24:20 10° NNW 22:30:34 73° W 22:31:20 65° SW
Cosmos 2322 Rocket 2.1 22:25:10 10° NNW 22:30:51 77° ENE 22:31:03 76° E
USA 234 3.2 22:33:14 10° NE 22:39:48 85° NW 22:42:49 36° WSW
ACS3 Solar Sail 3.9 22:41:51 10° ENE 22:43:38 11° E 22:44:07 11° E
Cosmos 1763 Rocket 3.6 22:45:39 72° NE 22:45:39 72° NE 22:50:26 10° NNE
Cosmos-2242 4.1 22:47:28 41° N 22:47:28 41° N 22:50:13 10° N
Cosmos 1503 Rocket 4.1 22:44:20 10° NNW 22:49:02 72° NW 22:49:02 72° NW
Cosmos 1777 Rocket 4.3 22:44:37 10° NNW 22:49:16 60° WNW 22:49:16 60° WNW
Cosmos 2278 4.0 22:44:19 10° NNW 22:49:38 54° W 22:49:38 54° W
CZ-2C R/B 4.0 22:47:00 10° NNE 22:51:56 40° E 22:51:56 40° E
Cosmos 990 Rocket 4.1 22:47:45 10° NNW 22:52:30 69° NNE 22:52:30 69° NNE
ARGOS Delta rocket 4.2 22:51:40 10° NNE 22:56:07 67° NE 22:56:07 67° NE
SL-16 R/B 3.1 22:52:00 10° NW 22:56:47 36° W 22:56:47 36° W
Cosmos 1634 Rocket 3.8 22:57:50 82° SSE 22:58:09 87° E 23:04:21 10° N
Cosmos 1354 Rocket 4.1 22:54:31 10° NNW 22:59:19 73° N 22:59:19 73° N
Cosmos 2279 Rocket 4.0 23:01:48 65° ESE 23:02:00 66° E 23:08:13 10° NNE
SeaSat 1 3.6 23:03:53 32° ENE 23:04:36 34° NE 23:08:59 10° N
Meteor 2-6 Rocket 4.3 23:06:35 73° E 23:06:35 73° E 23:12:29 10° NNE
Cosmos 2221 4.1 23:09:57 29° NE 23:09:57 29° NE 23:12:18 10° NNE
Cosmos 2333 Rocket 3.3 23:05:11 10° NW 23:09:39 33° W 23:09:39 33° W
Meteor 2-2 Rocket 4.2 23:10:21 71° W 23:10:22 71° WNW 23:16:06 10° N
CZ-2C R/B 3.1 23:16:22 50° ENE 23:16:28 50° ENE 23:21:32 10° N
Cosmos 1833 4.4 23:17:41 63° WNW 23:17:58 64° WNW 23:23:36 10° NNE
BREEZE-M DEB (TANK) 3.8 23:10:53 10° W 23:18:11 67° N 23:23:15 10° E
Aureole 1 Rocket 3.7 23:26:28 10° NNW 23:32:01 87° WSW 23:32:03 86° SW
Cosmos 2297 Rocket 3.6 23:33:58 25° E 23:33:58 25° E 23:37:52 10° NE
Cosmos 2266 Rocket 4.1 23:28:03 10° N 23:34:01 60° E 23:34:28 58° E
Cosmos 2322 4.1 23:29:02 10° NNW 23:34:38 54° ENE 23:35:16 51° E
Cosmos 44 3.8 23:32:40 10° NNW 23:38:02 61° NE 23:38:07 61° ENE
ALOS 2 4.3 23:43:55 25° WNW 23:43:55 25° WNW 23:46:21 10° NNW
Cosmos 372 Rocket 4.2 23:39:09 10° NNW 23:43:34 66° NNW 23:43:34 66° NNW
RESURS DK-1 3.9 23:41:24 10° N 23:44:13 31° NNE 23:44:13 31° NNE
Cosmos 1937 Rocket 4.0 23:40:34 10° NNW 23:45:36 50° ENE 23:45:41 50° ENE
ISS0.123:50:53ENE23:50:53ENE23:41:23WNW
Cosmos 2360 Rocket 3.5 23:42:13 10° NW 23:45:58 27° W 23:45:58 27° W
Meteor 2-20 4.4 23:48:57 66° ESE 23:49:14 67° E 23:55:17 10° NNE
Meteor 1-11 Rocket 3.7 23:43:45 10° N 23:49:28 72° ENE 23:49:31 72° E
GP-B 3.9 23:46:03 10° N 23:49:14 47° N 23:49:14 47° N
Cosmos 468 Rocket 4.4 23:51:08 54° WNW 23:51:08 54° WNW 23:56:14 10° NNE
Meteor 1-10 Rocket 4.2 23:52:26 84° ESE 23:52:29 84° E 23:58:26 10° NNE
